weather.gov     
National Weather Service

Terminal Aerodrome Forecast
NWS Homepage
This page is being discontinued on March 12, 2014.
The same data is available at this site. Please update your bookmarks.
Thank you, and we apologize for the inconvenience.
Please send an email to SR-SRH.Webmaster@noaa.gov with any concerns.


Current Version
Previous Version:    01  02  03  04  05  06  07  08  09  10  11  12  13  14  15  16  17  18  19  20  21  22  23  24  25  26  27  28  29  
[Printable]
937
FTUS45 KSLC 311727
TAFBCE
TAF
KBCE 311727Z 3118/0118 30010G16KT P6SM VCTS SCT080CB BKN100
     FM312300 30010KT P6SM VCSH SCT070 BKN080
     FM010300 31010KT P6SM SCT080 BKN100=




937
FTUS45 KSLC 311727
TAFBCE
TAF
KBCE 311727Z 3118/0118 30010G16KT P6SM VCTS SCT080CB BKN100
     FM312300 30010KT P6SM VCSH SCT070 BKN080
     FM010300 31010KT P6SM SCT080 BKN100=


U.S. Dept. of Commerce
NOAA National Weather Service
1325 East West Highway
Silver Spring, MD 20910
E-mail: w-nws.webmaster@noaa.gov
Page last modified: May 16, 2007
NATIONAL WEATHER SERVICE: for Safety, for Work, for Fun - FOR LIFE